9W2KHE-13 Weather Reports


time (UTC)temp
F
wind
direction
speed
knots
gust
knots
rain 1hr
in
rain 24hr
in
rain mn
in
humidity
%
barometer
mb
20260509163434 86 135 0.0 0.0 0.00 0.00 0.00 70 1011.0
20260509161931 86 135 0.0 0.0 0.00 0.00 0.00 70 1011.0
20260509160429 86 135 0.0 0.0 0.00 0.00 0.00 70 1011.1
20260509155927 86 135 0.0 0.0 0.00 0.00 0.00 70 1011.1
20260509155426 86 135 0.0 0.0 0.00 0.00 0.00 70 1011.2
20260509154925 86 135 0.0 0.0 0.00 0.00 0.00 70 1011.1
20260509154424 86 135 0.0 0.0 0.00 0.00 0.00 70 1011.2
20260509153924 86 135 0.0 0.0 0.00 0.00 0.00 70 1011.2
20260509153422 86 135 0.0 0.0 0.00 0.00 0.00 70 1011.1
20260509152921 86 135 0.0 0.0 0.00 0.00 0.00 70 1011.2
20260509152420 86 135 0.0 0.0 0.00 0.00 0.00 70 1011.3
20260509151919 86 135 0.0 0.0 0.00 0.00 0.00 69 1011.1
20260509151419 86 135 0.0 0.0 0.00 0.00 0.00 69 1011.1
20260509150916 86 135 0.0 0.0 0.00 0.00 0.00 69 1011.1
20260509150415 86 135 0.0 0.0 0.00 0.00 0.00 69 1011.1
20260509145914 86 135 0.0 0.0 0.00 0.00 0.00 69 1011.1
20260509145413 86 135 0.0 0.0 0.00 0.00 0.00 69 1010.9
20260509144914 86 135 0.0 0.0 0.00 0.00 0.00 69 1011.1
20260509144411 86 135 0.0 0.0 0.00 0.00 0.00 69 1011.0
20260509143910 86 135 0.0 0.0 0.00 0.00 0.00 69 1010.9
20260509143409 86 135 0.0 0.0 0.00 0.00 0.00 69 1010.9
20260509142908 86 135 0.0 0.0 0.00 0.00 0.00 69 1011.1
20260509142408 86 135 0.0 0.0 0.00 0.00 0.00 69 1010.8
20260509141906 86 135 0.0 0.0 0.00 0.00 0.00 69 1010.8
20260509141405 86 135 0.0 0.0 0.00 0.00 0.00 69 1010.7
20260509140904 87 135 0.0 0.0 0.00 0.00 0.00 69 1010.8
20260509140403 86 135 0.0 0.0 0.00 0.00 0.00 69 1010.7
20260509135903 87 135 0.0 0.0 0.00 0.00 0.00 69 1010.7
20260509135400 87 135 0.0 0.0 0.00 0.00 0.00 68 1010.6
20260509134900 87 135 0.0 0.0 0.00 0.00 0.00 68 1010.6
20260509134359 87 135 0.0 0.0 0.00 0.00 0.00 68 1010.6
20260509133858 87 135 0.0 0.0 0.00 0.00 0.00 68 1010.6
20260509133358 87 135 0.0 0.0 0.00 0.00 0.00 68 1010.5
20260509132855 87 135 0.0 0.0 0.00 0.00 0.00 68 1010.4
20260509132354 87 135 0.0 0.0 0.00 0.00 0.00 68 1010.2
20260509131853 87 135 0.0 0.0 0.00 0.00 0.00 68 1010.2
20260509130852 87 135 0.0 0.0 0.00 0.00 0.00 68 1010.0
20260509130350 87 135 0.0 0.0 0.00 0.00 0.00 68 1010.1
20260509125849 87 135 0.0 0.0 0.00 0.00 0.00 68 1010.1
20260509125348 87 135 0.0 0.0 0.00 0.00 0.00 68 1010.0
20260509124848 87 135 0.0 0.0 0.00 0.00 0.00 68 1010.1
20260509124347 87 135 0.0 0.0 0.00 0.00 0.00 68 1010.0
20260509123845 87 135 0.0 0.0 0.00 0.00 0.00 68 1009.9
20260509123344 87 135 0.0 0.0 0.00 0.00 0.00 68 1010.0
20260509122843 87 135 0.0 0.0 0.00 0.00 0.00 68 1010.0
20260509122342 87 135 0.0 0.0 0.00 0.00 0.00 68 1010.0
20260509121842 87 135 0.0 0.0 0.00 0.00 0.00 67 1009.8
20260509121340 87 135 0.0 0.0 0.00 0.00 0.00 67 1009.9
20260509120839 87 135 0.0 0.0 0.00 0.00 0.00 67 1009.7
20260509120338 87 135 0.0 0.0 0.00 0.00 0.00 67 1009.7
20260509115837 87 135 0.0 0.0 0.00 0.00 0.00 67 1009.6
20260509114333 88 135 0.0 0.0 0.00 0.00 0.00 67 1009.3
20260509113832 88 135 0.0 0.0 0.00 0.00 0.00 67 1009.3
20260509113331 88 157 0.0 0.0 0.00 0.00 0.00 67 1009.2
20260509112831 88 157 0.0 0.0 0.00 0.00 0.00 67 1009.1
20260509112329 88 157 0.0 0.0 0.00 0.00 0.00 67 1008.9
20260509111828 88 157 0.0 0.0 0.00 0.00 0.00 67 1008.9
20260509111327 88 157 0.0 0.0 0.00 0.00 0.00 67 1008.8
20260509110826 88 157 0.0 0.0 0.00 0.00 0.00 67 1008.8
20260509110326 88 157 0.0 0.0 0.00 0.00 0.00 67 1008.7
20260509105824 88 157 0.0 0.0 0.00 0.00 0.00 67 1008.6
20260509105323 88 157 0.0 0.0 0.00 0.00 0.00 67 1008.6
20260509104822 88 157 0.0 0.0 0.00 0.00 0.00 67 1008.6
20260509104321 88 157 0.0 0.0 0.00 0.00 0.00 67 1008.6
20260509103821 88 157 0.0 0.0 0.00 0.00 0.00 67 1008.4
20260509103318 88 157 0.0 0.0 0.00 0.00 0.00 66 1008.5
20260509102317 88 157 0.0 0.0 0.00 0.00 0.00 66 1008.4
20260509101316 88 157 0.0 0.0 0.00 0.00 0.00 66 1008.4
20260509100813 88 157 0.0 0.0 0.00 0.00 0.00 66 1008.4
20260509095811 88 157 0.0 0.0 0.00 0.00 0.00 66 1008.3
20260509095310 88 157 0.0 0.0 0.00 0.00 0.00 66 1008.3
20260509094810 88 157 0.0 0.0 0.00 0.00 0.00 66 1008.3
20260509094308 88 157 0.0 0.0 0.00 0.00 0.00 65 1008.0
20260509093306 88 157 0.0 0.0 0.00 0.00 0.00 65 1008.2
20260509092805 88 157 0.0 0.0 0.00 0.00 0.00 65 1008.1
20260509091302 88 135 0.0 0.0 0.00 0.00 0.00 64 1008.1
20260509090300 89 154 0.0 0.0 0.00 0.00 0.00 64 1008.2
20260509085800 89 152 0.0 0.0 0.00 0.00 0.00 64 1008.3
20260509084757 89 147 0.0 0.0 0.00 0.00 0.00 64 1008.5
20260509083755 90 157 0.0 0.0 0.00 0.00 0.00 63 1008.5
20260509083255 90 148 0.0 0.0 0.00 0.00 0.00 63 1008.5
20260509082752 90 135 0.0 0.0 0.00 0.00 0.00 62 1008.5
20260509081750 91 135 0.0 0.0 0.00 0.00 0.00 62 1008.6
20260509081250 91 135 0.0 0.0 0.00 0.00 0.00 62 1008.9
20260509080247 91 141 0.0 0.0 0.00 0.00 0.00 62 1008.8
20260509075746 91 149 0.0 0.0 0.00 0.00 0.00 62 1008.9
20260509075245 91 139 0.0 0.0 0.00 0.00 0.00 62 1008.9
20260509074744 91 135 0.0 0.0 0.00 0.00 0.00 62 1008.9
20260509073742 91 165 0.0 0.0 0.00 0.00 0.00 63 1008.9
20260509073241 91 140 0.0 0.0 0.00 0.00 0.00 64 1009.1
20260509072740 91 135 0.0 0.0 0.00 0.00 0.00 64 1009.2
20260509071236 91 135 0.0 0.0 0.00 0.00 0.00 64 1009.2
20260509070736 90 135 0.0 0.0 0.00 0.00 0.00 65 1009.3
20260509070235 90 135 0.0 0.0 0.00 0.00 0.00 65 1009.4
20260509065734 90 135 0.0 0.0 0.00 0.00 0.00 65 1009.5
20260509065234 90 140 0.0 0.0 0.00 0.00 0.00 65 1009.5
20260509064732 90 135 0.0 0.0 0.00 0.00 0.00 65 1009.7
20260509064231 90 157 0.0 0.0 0.00 0.00 0.00 65 1009.8
20260509063730 90 157 0.0 0.0 0.00 0.00 0.00 65 1009.8
20260509063228 90 135 0.0 0.0 0.00 0.00 0.00 66 1010.0
20260509062729 90 135 0.0 0.0 0.00 0.00 0.00 66 1010.1
20260509062226 90 135 0.0 0.0 0.00 0.00 0.00 66 1010.1
20260509061725 90 135 0.0 0.0 0.00 0.00 0.00 66 1010.2
20260509061224 90 135 0.0 0.0 0.00 0.00 0.00 66 1010.4
20260509060723 89 135 0.0 0.0 0.00 0.00 0.00 66 1010.5
20260509060223 89 180 0.0 0.0 0.00 0.00 0.00 67 1010.6
20260509055721 89 135 0.0 0.0 0.00 0.00 0.00 67 1010.7
20260509055220 89 135 0.0 0.0 0.00 0.00 0.00 67 1010.8
20260509054218 89 162 0.0 0.0 0.00 0.00 0.00 67 1011.0
20260509053718 88 157 0.0 0.0 0.00 0.00 0.00 68 1011.1
20260509053215 88 135 0.0 0.0 0.00 0.00 0.00 68 1011.2
20260509052715 88 135 0.0 0.0 0.00 0.00 0.00 68 1011.2
20260509052214 88 135 0.0 0.0 0.00 0.00 0.00 68 1011.4
20260509051713 88 135 0.0 0.0 0.00 0.00 0.00 68 1011.5
20260509051213 88 135 0.0 0.0 0.00 0.00 0.00 68 1011.6
20260509050710 88 135 0.0 0.0 0.00 0.00 0.00 68 1011.7
20260509050209 88 160 0.0 0.0 0.00 0.00 0.00 68 1011.7
20260509045708 88 171 0.0 0.0 0.00 0.00 0.00 69 1011.8
20260509045207 87 136 0.0 0.0 0.00 0.00 0.00 69 1011.9
20260509044707 87 135 0.0 0.0 0.00 0.00 0.00 69 1011.9
20260509044205 87 144 0.0 0.0 0.00 0.00 0.00 70 1012.0
20260509043704 87 137 0.0 0.0 0.00 0.00 0.00 70 1012.1
20260509043203 87 180 0.0 0.0 0.00 0.00 0.00 70 1012.2
20260509042702 86 135 0.0 0.0 0.00 0.00 0.00 70 1012.2
20260509042202 86 161 0.0 0.0 0.00 0.00 0.00 71 1012.3
20260509041700 86 153 0.0 0.0 0.00 0.00 0.00 71 1012.3
20260509040658 86 135 0.0 0.0 0.00 0.00 0.00 72 1012.5
20260509040157 86 138 0.0 0.0 0.00 0.00 0.00 72 1012.5
20260509035657 86 135 0.0 0.0 0.00 0.00 0.00 72 1012.6
20260509035154 86 180 0.0 0.0 0.00 0.00 0.00 72 1012.7
20260509034153 85 135 0.0 0.0 0.00 0.00 0.00 73 1012.7
20260509033652 85 180 0.0 0.0 0.00 0.00 0.00 73 1012.7
20260509033152 85 135 0.0 0.0 0.00 0.00 0.00 73 1012.7
20260509032649 85 135 0.0 0.0 0.00 0.00 0.00 73 1012.7
20260509032148 85 180 0.0 0.0 0.00 0.00 0.00 74 1012.7
20260509031647 85 138 0.0 0.0 0.00 0.00 0.00 74 1012.8
20260509031146 84 135 0.0 0.0 0.00 0.00 0.00 74 1012.8
20260509030646 84 135 0.0 0.0 0.00 0.00 0.00 74 1012.8
20260509025643 84 135 0.0 0.0 0.00 0.00 0.00 75 1012.9
20260509025142 84 135 0.0 0.0 0.00 0.00 0.00 75 1012.9
20260509024141 84 135 0.0 0.0 0.00 0.00 0.00 75 1012.8
20260509023639 83 135 0.0 0.0 0.00 0.00 0.00 75 1012.8
20260509022637 83 135 0.0 0.0 0.00 0.00 0.00 76 1012.8
20260509022136 83 135 0.0 0.0 0.00 0.00 0.00 76 1012.8
20260509021133 83 135 0.0 0.0 0.00 0.00 0.00 76 1012.9
20260509020632 83 135 0.0 0.0 0.00 0.00 0.00 76 1012.9
20260509020132 83 167 0.0 0.0 0.00 0.00 0.00 76 1012.8
20260509015631 83 157 0.0 0.0 0.00 0.00 0.00 76 1012.7
20260509015131 82 135 0.0 0.0 0.00 0.00 0.00 76 1012.8
20260509014628 82 135 0.0 0.0 0.00 0.00 0.00 76 1012.7
20260509014127 82 135 0.0 0.0 0.00 0.00 0.00 76 1012.8
20260509013626 82 135 0.0 0.0 0.00 0.00 0.00 76 1012.8
20260509013125 82 135 0.0 0.0 0.00 0.00 0.00 76 1012.7
20260509012624 82 135 0.0 0.0 0.00 0.00 0.00 76 1012.6
20260509012123 82 135 0.0 0.0 0.00 0.00 0.00 76 1012.7
20260509011622 82 135 0.0 0.0 0.00 0.00 0.00 76 1012.8
20260509011121 82 135 0.0 0.0 0.00 0.00 0.00 76 1012.7
20260509010620 82 135 0.0 0.0 0.00 0.00 0.00 76 1012.7
20260509005618 82 135 0.0 0.0 0.00 0.00 0.00 76 1012.6
20260509005117 82 135 0.0 0.0 0.00 0.00 0.00 76 1012.5
20260509004616 81 135 0.0 0.0 0.00 0.00 0.00 76 1012.6
20260509003615 81 135 0.0 0.0 0.00 0.00 0.00 76 1012.4
20260509003112 81 135 0.0 0.0 0.00 0.00 0.00 76 1012.4
20260509002611 81 135 0.0 0.0 0.00 0.00 0.00 76 1012.4
20260509001610 81 135 0.0 0.0 0.00 0.00 0.00 76 1012.2
20260509001110 81 135 0.0 0.0 0.00 0.00 0.00 76 1012.1
20260509000106 81 157 0.0 0.0 0.00 0.00 0.00 76 1012.0
20260508235104 81 135 0.0 0.0 0.00 0.00 0.00 76 1011.8
20260508234604 81 135 0.0 0.0 0.00 0.00 0.00 76 1011.7
20260508233100 81 135 0.0 0.0 0.00 0.00 0.00 76 1011.5
20260508232600 81 135 0.0 0.0 0.00 0.00 0.00 75 1011.4
20260508231557 81 135 0.0 0.0 0.00 0.00 0.00 75 1011.4
20260508231056 81 135 0.0 0.0 0.00 0.00 0.00 76 1011.2
20260508230054 81 135 0.0 0.0 0.00 0.00 0.00 75 1011.0
20260508225554 81 135 0.0 0.0 0.00 0.00 0.00 75 1011.1
20260508225051 81 135 0.0 0.0 0.00 0.00 0.00 75 1011.1
20260508224550 81 135 0.0 0.0 0.00 0.00 0.00 75 1011.0
20260508224050 81 135 0.0 0.0 0.00 0.00 0.00 75 1011.0
20260508223549 81 135 0.0 0.0 0.00 0.00 0.00 75 1010.9
20260508222546 81 157 0.0 0.0 0.00 0.00 0.00 75 1010.7
20260508222045 81 135 0.0 0.0 0.00 0.00 0.00 75 1010.7
20260508221544 81 157 0.0 0.0 0.00 0.00 0.00 75 1010.7
20260508221043 81 135 0.0 0.0 0.00 0.00 0.00 75 1010.7
20260508220543 81 135 0.0 0.0 0.00 0.00 0.00 75 1010.6
20260508220041 81 135 0.0 0.0 0.00 0.00 0.00 75 1010.4
20260508215540 81 135 0.0 0.0 0.00 0.00 0.00 75 1010.4
20260508215039 81 135 0.0 0.0 0.00 0.00 0.00 75 1010.3
20260508214538 81 135 0.0 0.0 0.00 0.00 0.00 75 1010.4
20260508214038 81 135 0.0 0.0 0.00 0.00 0.00 75 1010.3
20260508213536 82 135 0.0 0.0 0.00 0.00 0.00 75 1010.2
20260508213035 82 135 0.0 0.0 0.00 0.00 0.00 75 1010.2
20260508212033 82 157 0.0 0.0 0.00 0.00 0.00 75 1010.1
20260508211533 82 157 0.0 0.0 0.00 0.00 0.00 75 1010.1
20260508211031 82 157 0.0 0.0 0.00 0.00 0.00 75 1010.0
20260508210530 82 157 0.0 0.0 0.00 0.00 0.00 75 1009.9
20260508210029 82 157 0.0 0.0 0.00 0.00 0.00 75 1010.0
20260508205528 82 157 0.0 0.0 0.00 0.00 0.00 75 1010.1
20260508205028 82 157 0.0 0.0 0.00 0.00 0.00 75 1010.2
20260508204525 82 157 0.0 0.0 0.00 0.00 0.00 75 1010.2
20260508204024 82 157 0.0 0.0 0.00 0.00 0.00 75 1010.3
20260508203523 82 157 0.0 0.0 0.00 0.00 0.00 75 1010.3
20260508203022 81 157 0.0 0.0 0.00 0.00 0.00 75 1010.2
20260508202522 81 157 0.0 0.0 0.00 0.00 0.00 75 1010.2
20260508202020 81 157 0.0 0.0 0.00 0.00 0.00 75 1010.2
20260508201519 81 157 0.0 0.0 0.00 0.00 0.00 75 1010.1
20260508201018 81 157 0.0 0.0 0.00 0.00 0.00 74 1010.3
20260508200017 82 157 0.0 0.0 0.00 0.00 0.00 74 1010.3
20260508195014 82 157 0.0 0.0 0.00 0.00 0.00 74 1010.1
20260508193512 82 135 0.0 0.0 0.00 0.00 0.00 74 1010.3
20260508192509 82 135 0.0 0.0 0.00 0.00 0.00 74 1010.3
20260508191507 82 135 0.0 0.0 0.00 0.00 0.00 73 1010.3
20260508185503 83 135 0.0 0.0 0.00 0.00 0.00 72 1010.5
20260508183500 83 135 0.0 0.0 0.00 0.00 0.00 72 1010.8
20260508181956 83 135 0.0 0.0 0.00 0.00 0.00 72 1011.2
20260508181455 83 135 0.0 0.0 0.00 0.00 0.00 72 1011.1
20260508180955 83 135 0.0 0.0 0.00 0.00 0.00 72 1011.3
20260508175952 83 135 0.0 0.0 0.00 0.00 0.00 72 1011.3
20260508175451 83 135 0.0 0.0 0.00 0.00 0.00 72 1011.2
20260508174950 83 135 0.0 0.0 0.00 0.00 0.00 72 1011.3
20260508174450 83 135 0.0 0.0 0.00 0.00 0.00 72 1011.3
20260508173947 83 135 0.0 0.0 0.00 0.00 0.00 72 1011.4
20260508173446 83 135 0.0 0.0 0.00 0.00 0.00 72 1011.4
20260508172946 83 135 0.0 0.0 0.00 0.00 0.00 72 1011.7
20260508171945 83 135 0.0 0.0 0.00 0.00 0.00 72 1012.0
20260508171442 83 135 0.0 0.0 0.00 0.00 0.00 72 1012.1
20260508170941 83 135 0.0 0.0 0.00 0.00 0.00 72 1012.1
20260508165939 83 135 0.0 0.0 0.00 0.00 0.00 72 1012.1
20260508165439 83 135 0.0 0.0 0.00 0.00 0.00 72 1012.2
20260508164937 83 135 0.0 0.0 0.00 0.00 0.00 72 1012.3
20260508163935 83 135 0.0 0.0 0.00 0.00 0.00 72 1012.7